Location: Abundant Grace Fellowship
(35.0349°N, 90.0924°W)
Time: 09:00:24
(UTC+00:00)

RUBIN 8/PSLV - Pass Details

Date: 18 January 2026
Orbit: 593 x 628 km, 98.1° (Epoch: 10 February)

Event Time Altitude Azimuth Distance (km) Brightness Sun altitude
Rises 11:44:46 0° 8° (N) 2,837 7.9 -16.7°
Reaches altitude 10° 11:46:57 10° 5° (N) 1,933 7.0 -16.3°
Maximum altitude 11:51:05 62° 285° (WNW) 672 4.4 -15.5°
Drops below altitude 10° 11:55:14 10° 204° (SSW) 1,934 7.0 -14.7°
Sets 11:57:25 0° 201° (SSW) 2,838 7.9 -14.2°
